Tracking 19817 objects as of 17-Aug-2019
HD Live streaming from Space Station
objects crossing your sky now

COSMOS 637

Track COSMOS 637 now!
COSMOS 637 is classified as:


NORAD ID: 7229
Int'l Code: 1974-017A
Perigee: 35,471.7 km
Apogee: 35,834.2 km
Inclination: 7.0 °
Period: 1,428.9 minutes
Semi major axis: 42023 km
RCS: 2.5118 m2 (large)
Launch date: March 26, 1974
Source: Commonwealth of Independent States (former USSR) (CIS)
Launch site: TYURATAM MISSILE AND SPACE COMPLEX (TTMTR)
aabbcc
Your satellite tracking list
Your tracking list is empty




NASA's NSSDC Master Catalog

Two Line Element Set (TLE):
1  7229U 74017A   19228.63362105 -.00000279  00000-0  00000+0 0  9995
2  7229   7.0020 298.0386 0043138 353.5154  30.6202  1.00776154 97035
Source of the keplerian elements: AFSPC